默认 日期 大小 文件数 浏览量 最新下载 xml
harry s.磁力链接相关资源由用户搜索指令自动获取,结果来源于网络,本站不存储任何资料,亦不承担任何责任,请于24小时内删除,搜索到635个磁力,用时12ms。
    {"S01E01 - October 25, 1982.mkv": 770247070, "S01E02 - October 26, 1982.mkv": 745301711, "S01E03 - October 27, 1982.mkv": 735371430}
创建时间: 2023-04-19 18:45:28 大小:2.1 GB 文件数量:3 热度:4 最近下载:2025-02-28 06:26:03
    {"INFO.nfo": 1158, "cover.jpg": 38492, "08. Cinema.flac": 44172269, "07. Matilda.flac": 38101883, "05. Daylight.flac": 25732156, "04. As It Was.flac": 38906077, "11. Satellite.flac": 12463886, "03. Grapejuice.flac": 42312915, "12. Boyfriends.flac": ...
创建时间: 2023-05-22 17:07:14 大小:448.65 MB 文件数量:15 热度:5 最近下载:2025-09-15 14:25:01
    ... Junior.mp3": 27118240, "S04E04 - Poet's Corner.mp3": 27012422, "S06E05 - Investigation ... - Christmas 2002 - Knocking On Heaven's Door.mp3": 27995345}
创建时间: 2023-07-07 23:07:10 大小:1.17 GB 文件数量:53 热度:5 最近下载:2025-09-17 19:46:02
    ... Junior.mp3": 27118240, "S04E04 - Poet's Corner.mp3": 27012422, "S06E05 - Investigation ... - Christmas 2002 - Knocking On Heaven's Door.mp3": 27995345}
创建时间: 2023-07-09 20:15:59 大小:1.17 GB 文件数量:53 热度:5 最近下载:2025-09-17 19:46:03
    {".pad": {"0": 35918}, "See You at Harry's.mp3": 166556594, "51tekjbzekL._SL500_.jpg": 34337}
创建时间: 2023-07-21 21:23:45 大小:158.91 MB 文件数量:3 热度:3 最近下载:2025-01-12 06:50:06
    {"本站BT自动发布系统由晨风提供-欢迎联系合作.log": 574, "律政俏师太.Harry's.Law.S01E03.Chi_Eng.HDTVrip.720X396-YYeTs人人影视.rmvb": 178617576}
创建时间: 2023-07-26 17:49:25 大小:170.34 MB 文件数量:2 热度:5 最近下载:2025-10-10 16:59:03
    {"本站BT自动发布系统由晨风提供-欢迎联系合作.log": 574, "律政俏师太.Harry's.Law.S01E01.Chi_Eng.HDTVrip.720X396-YYeTs人人影视.rmvb": 180883744}
创建时间: 2023-07-31 08:59:08 大小:172.5 MB 文件数量:2 热度:6 最近下载:2025-10-10 16:59:02
    ... 720p.Tri.Tsveta.mkv": 1172139878, "Harry's.Law.S02E02.H.264.HDTVRip ... .Tri.Tsveta.mkv": 1133700919, "Harry's.Law.S02E03.H.264.HDTVRip ... .Tri.Tsveta.mkv": 1097963653, "Harry's.Law.S02E04.H.264.HDTVRip ... .Tri.Tsveta.mkv": 1048576616, "Harry's.Law.S02E05.H.264.HDTVRip ...
创建时间: 2023-08-14 19:13:06 大小:5.07 GB 文件数量:5 热度:2 最近下载:2025-01-27 05:22:07
    {"本站BT自动发布系统由晨风提供-欢迎联系合作.log": 574, "律政俏师太.Harry's.Law.S01E05.Chi_Eng.HR-HDTV.AC3.1024X576.x264-YYeTs人人影视.mkv": 512661635}
创建时间: 2023-08-17 09:44:44 大小:488.91 MB 文件数量:2 热度:4 最近下载:2025-10-10 16:59:03
    {"本站BT自动发布系统由晨风提供-欢迎联系合作.log": 574, "律政俏师太.Harry's.Law.S01E12.Chi_Eng.HR-HDTV.AC3.1024X576.x264-YYeTs人人影视.mkv": 505497806}
创建时间: 2023-08-18 07:05:54 大小:482.08 MB 文件数量:2 热度:7 最近下载:2025-10-10 16:59:01
    {"本站BT自动发布系统由晨风提供-欢迎联系合作.log": 574, "律政俏师太.Harry's.Law.S01E11.Chi_Eng.HR-HDTV.AC3.1024X576.x264-YYeTs人人影视.mkv": 505493656}
创建时间: 2023-09-02 16:34:36 大小:482.08 MB 文件数量:2 热度:9 最近下载:2025-10-10 16:59:01
    {"_ free audiobook version.txt": 1298, "_ uploads will cease (your support needed - urgent).txt": 555, "Dirty Harry's America_ Clint Eastwood, Harry Callahan, and the Conservative Backlash by Joe Street.pdf": 32903135}
创建时间: 2023-10-02 18:47:46 大小:31.38 MB 文件数量:3 热度:4 最近下载:2025-04-24 03:45:02
    {"coolrelease.net": 0, "Harry's Law 2011 Sn2 Ep10 HD-TV - Purple Hearts, By Cool Release.avi": 366761984}
创建时间: 2023-11-19 18:51:38 大小:349.77 MB 文件数量:2 热度:7 最近下载:2025-09-18 22:16:08
    {"+ Artwork": {"1.jpg": 139854}, "Harry Styles - Harry's House.ape": 270370904, "Harry Styles - Harry's House.cue": 2038, "Harry Styles - Harry's House.log": 7756}
创建时间: 2023-12-01 12:15:04 大小:257.99 MB 文件数量:4 热度:2 最近下载:2025-02-05 17:06:06
    {"Cover.jpg": 338730, "Verbotene Bilder (Harry S Morgan, Videorama) (2002) DVDRip-AVC.mkv": 1563704174, "Verbotene Bilder (Harry S Morgan, Videorama) (2002) Screenlist.jpg": 743938}
创建时间: 2023-12-20 10:23:23 大小:1.46 GB 文件数量:3 热度:8 最近下载:2025-09-15 16:09:11
    {"本站BT自动发布系统由晨风提供-欢迎联系合作.log": 574, "律政俏师太.Harry's.Law.S01E01.Chi_Eng.HR-HDTV.AC3.1024x576.x264-YYeTs人人影视.mkv": 507492381}
创建时间: 2024-02-02 13:52:00 大小:483.98 MB 文件数量:2 热度:6 最近下载:2025-10-10 16:59:03
    {"scans": {"scan (1).jpg": 65532, "scan (2).jpg": 86141, "scan (3).jpg": 79924, "scan (4).jpg": 137276, "scan (5).jpg": 86995, "scan (6).jpg": 93601, "scan (7).jpg": 96052, "scan (8).jpg": 103918, "scan (9).jpg": 93166, "scan (10).jpg": 93683, "scan (11). ...
创建时间: 2024-06-19 16:14:51 大小:334.47 MB 文件数量:23 热度:3 最近下载:2025-10-02 02:27:02
    {"_ DOWNLOAD free audiobook version.txt": 1346, "_ your support is needed, 242 members to go (06.20.2024).txt": 915, "Why I Left Harry's All-Night Hamburgers by Lawrence Watt-Evans.epub": 50157}
创建时间: 2024-07-04 09:16:25 大小:51.19 KB 文件数量:3 热度:8 最近下载:2025-09-21 16:36:01
    {"coolrelease.net": 0, "Harry's Law 2011 Sn2 Ep7 HD-TV - American Girl, By Cool Release.avi": 366737408}
创建时间: 2024-09-25 17:54:02 大小:349.75 MB 文件数量:2 热度:2 最近下载:2025-01-21 15:05:04
    {"coolrelease.net": 0, "Harry's Law 2011 Sn2 Ep5 HD-TV - Bad to Worse, By Cool Release.avi": 366757848}
创建时间: 2024-09-25 19:03:19 大小:349.77 MB 文件数量:2 热度:2 最近下载:2025-01-12 07:54:12